星链-31718 (STARLINK-31718 )

导读 | 星芒AI

STARLINK-31718 是 SpaceX Starlink 卫星互联网项目中的一颗低轨通信卫星。该卫星属于 Starlink 二代星座计划的一部分,旨在提供全球高速、低延迟的互联网服务。它运行在约 550 公里的轨道高度,采用先进通信技术,支持宽带数据传输。该卫星的发射和运行有助于扩展 Starlink 网络的覆盖范围和性能,为偏远地区提供稳定网络连接,同时增强整体星座的冗余与可靠性。

基本信息
目录编号:
59556
目录名称:
STARLINK-31718
国际标识:
2024-074Y
轨道中心:
EARTH
卫星名称:
星链-31718
卫星全名:
星链-31718 (STARLINK-31718 )
卫星状态:
在轨 (已飞行563 天)
发射日期:
2024-04-18 UTC
国别 :
美国 (US)
星等 :
--
轨道信息
数据来源 国际轨道数据
星历时间: 2025-11-01T03:47:41+0800
1天前
查看轨道信息
半长轴: 6861.216km
偏心率: 0.0000442
轨道倾角: 43.001°
近地点辐角 259.462°
升交点赤经 351.497°
平近点角 100.618°
近地点: 482.777km
远地点: 483.385km
周期: 94.267分钟
每日圈数: 15.275701
详细信息
固有亮度:
5
最大亮度:
1.5
卫星平台:
Starlink v2.0 mini
覆盖范围:
全球
运营商:
太空探索技术公司
运营商所在国:
美国
制造商(研发单位):
太空探索技术公司
制造商所在国:
美国
使用方式:
暂无
卫星简介
星链(Starlink)计划是由太空探索技术公司(SpaceX)提出的一个巨型低轨卫星互联网星座项目,计划在2019年至2024年间在太空搭建由约1.2万颗卫星组成的“星链”网络,其中1584颗将部署在地球上空550千米处的近地轨道,并从2020年开始工作。该卫星仍在工作。
2D轨道图
3D轨道图
轨道高度分析图
轨道倾角分析图
轨道综合分析图
查看轨道综合分析图